Other Public Products
Issued by NWS Grand Forks, ND

Home | Current Version | Previous Version | Text Only | Print | Product List | Glossary Off
Versions: 1 2 3 4 5 6 7 8 9 10 11 12 13 14 15 16 17 18 19 20 21 22 23 24 25 26 27 28 29 30 31 32 33 34 35 36 37 38 39 40 41 42 43 44 45 46 47 48 49 50

000
FPUS83 KFGF 261010
OPUFGF
PRAIRIE TO PINES WEATHER ROUNDUP
NATIONAL WEATHER SERVICE EASTERN NORTH DAKOTA/GRAND FORKS ND
400 AM CST MON JAN 26 2015

 **SATELLITE DATA USED TO AUGMENT SKY COVER AT AUTOMATED STATIONS**
 *****  WEATHER ACROSS EASTERN NORTH DAKOTA  *****

CITY           SKY/WX    TMP DP  RH WIND       PRES   REMARKS
GRAND FORKS    CLEAR     35  30  82 NW12      29.62R
GRAND FORKS AF CLEAR     38  31  74 NW13G21   29.63R
GRAND CITY NWS   N/A     32 N/A N/A NW9         N/A  WCI  24
BUXTON         NOT AVBL
DEVILS LAKE    CLEAR     36  30  80 W18       29.68R
FARGO          CLEAR     32  28  85 SW9       29.65F WCI  24
WAHPETON ARPT  PTSUNNY   32  30  93 W13       29.67F WCI  22
$$

 *****  WEATHER ACROSS CENTRAL AND WESTERN NORTH DAKOTA  *****

CITY           SKY/WX    TMP DP  RH WIND       PRES   REMARKS
JAMESTOWN      CLOUDY    38  32  79 NW15      29.71R
BISMARCK       CLEAR     41  32  70 NW13      29.82S
MINOT          PTCLDY    38  30  73 W17       29.77S
MINOT AFB      PTCLDY    37  35  94 NW21      29.76S
GARRISON         N/A     39  33  79 NW20      29.80S
WILLISTON      CLOUDY    38  32  79 SW8       29.89R
DICKINSON      CLOUDY    38  33  82 W10       29.87R
HETTINGER      PTCLDY    35  31  85 W7        29.91R
$$

 *****  OTHER OBSERVATIONS NORTHEAST NORTH DAKOTA  *****

CITY           SKY/WX    TMP DP  RH WIND       PRES   REMARKS
WALHALLA         N/A     37  36  93 NW14G21   29.61S
LANGDON        FAIR      32  28  86 W16       29.63R WCI  21
CAVALIER       FAIR      37  32  81 NW14      29.60R
GRAFTON        NOT AVBL
CANDO          FAIR      32  28  86 W17       29.69R WCI  21
FORT TOTTEN      N/A     35  31  84 NW8       29.95S
ROLLA          FAIR      39  32  75 NW22G32   29.68R
RUGBY          FAIR      32  28  86 W15       29.73R WCI  22
 ***** THE ABOVE OBSERVATIONS ARE NON NWS ARE NOT QUALITY
        CONTROLLED AND MAY MIS-REPORT RAIN FOR SNOW...
$$

 *****  OTHER OBSERVATIONS SOUTHEAST NORTH DAKOTA *****

CITY           SKY/WX    TMP DP  RH WIND       PRES   REMARKS
COOPERSTOWN    NOT AVBL
VALLEY CITY    NOT AVBL
OAKES            N/A     37  36  93 NW14G21   29.72R
GWINNER        MOSUNNY   36  36 100 W14       29.71S
BUFFALO        NOT AVBL
WYNDMERE         N/A     36  32  87 W12         N/A
 ***** THE ABOVE OBSERVATIONS ARE NON NWS ARE NOT QUALITY
       CONTROLLED AND MAY MIS-REPORT RAIN FOR SNOW...
$$

  *****  WEATHER ACROSS NORTHERN MINNESOTA  *****

CITY           SKY/WX    TMP DP  RH WIND       PRES   REMARKS
FLAG ISLAND    CLOUDY    25  23  93 SE5       29.52F WCI  19
WARROAD        CLOUDY    28  25  86 SW10      29.54F WCI  19
ROSEAU         CLOUDY    30  27  86 SW9       29.55S WCI  22
HALLOCK        CLOUDY    27  25  93 W5        29.58R WCI  21
THF RVR FALLS  MOCLDY    28  27  93 SW9       29.60S WCI  20
HALSTAD          N/A     29  27  92 W8          N/A  WCI  21
FOSSTON        CLOUDY    28  27  93 SW14      29.62S WCI  17
BAUDETTE       CLOUDY    27  21  78 S8        29.54F WCI  19
WASKISH        CLOUDY    28  23  80 S7        29.57F WCI  21
CROOKSTON      CLEAR     28  27  93 W8        29.62F WCI  20
$$
  *****  WEATHER ACROSS CENTRAL AND WEST MINNESOTA  *****

CITY           SKY/WX    TMP DP  RH WIND       PRES   REMARKS
BEMIDJI        CLOUDY    28  24  86 SW7       29.59F WCI  21
PARK RAPIDS    CLOUDY    28  24  85 SW10      29.62F WCI  19
WADENA         CLOUDY    27  25  93 SW7       29.66R WCI  19
DETROIT LAKES  MOCLDY    32  30  93 W10       29.64F WCI  24
MOORHEAD       CLEAR     28  28 100 SW5       29.66F WCI  23
FERGUS FALLS   MOCLDY    28  27  93 W6        29.71S WCI  22
ELBOW LAKE     FAIR      31  29  94 SW18G24   29.67S WCI  19
MORRIS MN      MOCLDY    34  30  86 SW9       29.69F
STAPLES        CLOUDY    27  25  93 S9        29.65F WCI  17
WHEATON        CLOUDY    32  28  86 SW12      29.71F WCI  23
$$
  *****  WEATHER ELSEWHERE ACROSS MINNESOTA  *****

CITY           SKY/WX    TMP DP  RH WIND       PRES   REMARKS
DULUTH         SNOW      19  15  84 S9        29.70F VSB 1/2 WCI   8
INTRNTL FALLS  LGT SNOW  22  19  89 VRB6      29.58F FOG     WCI  14
ELY            LGT SNOW  18  16  93 S9        29.66F WCI   6
CLOQUET        LGT SNOW  19  18  93 SE7       29.71F WCI  10
BRAINERD       CLOUDY    25  22  88 S8        29.68F WCI  16
HIBBING        FLURRIES  22  17  81 S8        29.65F WCI  12
ALEXANDRIA     CLOUDY    31  29  92 SW23G30   29.65F WCI  18
SAINT CLOUD    CLOUDY    25  23  92 SE5       29.74F WCI  19
MINNEAPOLIS    CLOUDY    25  20  81 S9        29.80F WCI  15
$$

  *****  WEATHER ACROSS SOUTH DAKOTA  *****

CITY           SKY/WX    TMP DP  RH WIND       PRES   REMARKS
SIOUX FALLS    PTCLDY    32  30  92 SW12      29.79F WCI  23
BROOKINGS      NOT AVBL
WATERTOWN      PTCLDY    35  29  78 W14       29.75S
HURON          PTCLDY    33  29  85 SW9       29.77F
SISSETON         N/A     38  32  79 NW13G23   29.70F
ABERDEEN       PTCLDY    33  29  85 W3        29.75F
MITCHELL       CLEAR     37  31  78 W13       29.82F
PIERRE         CLEAR     37  31  78 W13       29.85S
MOBRIDGE       CLEAR     38  33  82 NW10      29.81R
RAPID CITY     CLEAR     52  29  41 NW17      29.97R
$$

  *****  SOME WEATHER IN NEARBY STATES *****

CITY           SKY/WX    TMP DP  RH WIND       PRES   REMARKS
GLASGOW MT     CLEAR     34  31  88 NW6       29.95R
GREAT FALLS MT CLOUDY    53  26  35 SW20      30.05F
CHEYENNE WY    CLOUDY    47  23  38 NW13      30.21R
SCOTTSBLUFF NE CLOUDY    40  31  70 NW10      30.12S
OMAHA NE       CLEAR     27  25  92 S9        29.96F WCI  18
DES MOINES IA  CLOUDY    32  25  75 SW7       29.97F
DAVENPORT IA   PTCLDY    13   8  81 W5        30.02F WCI   5
CHICAGO IL     MOCLDY    22  14  71 N3        29.97S
EAU CLAIRE WI  CLOUDY    20  13  74 S9        29.87F WCI   9
LA CROSSE WI   CLOUDY    23  14  68 S12       29.94F WCI  12
$$

  *****  SOME NATIONAL WEATHER *****

CITY           SKY/WX    TMP DP  RH WIND       PRES   REMARKS
LA GUARDIA NY  CLOUDY    24  10  55 NE16      30.02F WCI  11
RALEIGH NC     CLOUDY    40  34  79 S5        29.70F
ATLANTA GA     MOCLDY    45  39  81 W8        29.74S
NEW ORLEANS LA CLEAR     49  35  58 NW7       30.04S
OKLAHOMA CITY  CLEAR     34  26  72 CALM      30.17F
ALBUQUERQUE NM CLEAR     35  25  66 N8        30.36R
SALT LAKE CITY CLEAR     30  28  92 SE7       30.42R WCI  23
LOS ANGELES CA MOCLDY    60  39  45 CALM      30.01S
BOISE ID       CLEAR     28  28 100 NW3       30.38F
SEATTLE WA     FOG       46  45  96 CALM      29.94F VSB 1/8
$$

*** WEATHER ACROSS MANITOBA...SASKATCHEWAN AND ONTARIO ***
                ***ONTARIO***

CITY           SKY/WX    TMP DP  RH WIND       PRES   REMARKS
GERALDTON      FLURRIES  -4  -9  77 CALM      29.82F
THUNDER BAY    LGT SNOW  10   7  85 CALM      29.82F
SIOUX LOOKOUT  LGT SNOW  18  14  86 S12G18    29.57F WCI   5
TORONTO        FLURRIES  10   3  72 NE13G20   30.01S WCI  -5
BIG TROUT LK   FLURRIES   3   0  85 E5        29.73R WCI  -6
PICKLE LAKE    NOT AVBL
DRYDEN         LGT SNOW  19  18  93 S9        29.54F WCI   9
KENORA         FLURRIES  21  19  93 S7        29.51S WCI  13
$$
                *** MANITOBA***

CITY           SKY/WX    TMP DP  RH WIND       PRES   REMARKS
BRANDON        CLEAR     34  28  80 NW21      29.64R WCI  22
DAUPHIN        MOCLDY    36  30  80 W20       29.62R
ISLAND LAKE    FLURRIES   9   7  92 E6        29.63R WCI  -1
PILOT MOUND    NOT AVBL
THE PAS        PTCLDY    14  10  85 NW10      29.74R WCI   1
THOMPSON       FLURRIES   5   0  78 N7        29.74R WCI  -7
WINNIPEG       CLOUDY    34  28  80 W14       29.56R WCI  24
LYNN LAKE      CLOUDY     3   1  92 N5        29.73S WCI  -6
CHURCHILL      CLEAR    -17 -22  76 E9        29.91R WCI -36
GILLAM         FLURRIES  -2  -6  84 E5        29.77R WCI -12
$$
                ***SASKATCHEWAN***

CITY           SKY/WX    TMP DP  RH WIND       PRES   REMARKS
ESTEVAN        CLEAR     36  30  80 W14       29.82R
KINDERSLEY     PTCLDY    27  23  86 SW5       29.90S WCI  21
LLOYDMINSTER   NOT AVBL
PRINCE ALBERT  CLEAR     28  25  86 W7        29.78R WCI  21
REGINA         MOCLDY    37  30  75 W16       29.86R
YORKTON        CLEAR     36  28  75 W20G26    29.71R


USA.gov is the U.S. government's official web portal to all federal, state and local government web resources and services.